Change the Weather History Date:

Friday, May 31, 2013

  Actual Average Record
Temperature  
Mean Temperature 84 °F 80 °F  
Max Temperature 92 °F 90 °F 98 °F (1911)
Min Temperature 76 °F 70 °F 54 °F (1984)
Degree Days  
Heating Degree Days 0 0  
Month to date heating degree days 9 0  
Since 1 July heating degree days 1024 1249  
Cooling Degree Days 19 15  
Month to date cooling degree days 352 370  
Year to date cooling degree days 634 659  
Growing Degree Days 32 (Base 50)    
Moisture  
Dew Point 75 °F    
Average Humidity 80    
Maximum Humidity 100    
Minimum Humidity 59    
Precipitation  
Precipitation 0.00 in 0.17 in 1.46 in (1970)
Month to date precipitation 2.18 5.19  
Year to date precipitation 9.38 15.38  
Snow  
Snow 0.00 in - - ()
Month to date snowfall 0.0  
Since 1 July snowfall 0.0  
Snow Depth 0.00 in    
Sea Level Pressure  
Sea Level Pressure 29.85 in    
Wind  
Wind Speed 13 mph (SSE)    
Max Wind Speed 23 mph    
Max Gust Speed 31 mph    
Visibility 10 miles    
Events      
T = Trace of Precipitation, MM = Missing Value Source: NWS Daily Summary

Daily Weather History Graph

Daily Weather History Graph

Search for Another Location

Airport or City:

Trip Planner

Search our weather history database for the weather conditions in past years. The results will help you decide how hot, cold, wet, or windy it might be!

Date:

Astronomy

May. 31, 2013 Rise Set
Actual Time 6:29 AM CDT 8:21 PM CDT
Civil Twilight 6:03 AM CDT 8:47 PM CDT
Nautical Twilight 5:31 AM CDT 9:20 PM CDT
Astronomical Twilight 4:57 AM CDT 9:54 PM CDT
Moon 1:18 AM CDT (5/31) 1:21 PM CDT (5/31)
Length of Visible Light 14h 44m
Length of Day
13h 51m
Waning Gibbous, 51% of the Moon is Illuminated
May 31
Waning Gibbous
May 31
Last Quarter
Jun 8
New
Jun 16
First Quarter
Jun 23
Full

Hourly Weather History & Observations

Time (CDT) Temp. Heat Index Dew Point Humidity Pressure Visibility Wind Dir Wind Speed Gust Speed Precip Events Conditions
12:51 AM 75.9 °F - 75.0 °F 97% 29.86 in 10.0 mi SE 5.8 mph - N/A   Scattered Clouds
1:51 AM 75.9 °F - 75.0 °F 97% 29.86 in 10.0 mi SE 8.1 mph - N/A   Partly Cloudy
2:51 AM 77.0 °F - 75.0 °F 94% 29.85 in 10.0 mi SE 5.8 mph - N/A   Mostly Cloudy
3:08 AM 77.0 °F - 75.2 °F 94% 29.85 in 10.0 mi SSE 5.8 mph - N/A   Overcast
3:22 AM 77.0 °F - 75.2 °F 94% 29.85 in 10.0 mi SSE 6.9 mph - N/A   Mostly Cloudy
3:51 AM - - - N/A% 29.85 in 10.0 mi SSE 5.8 mph - N/A   Clear
4:48 AM - - - N/A% 29.85 in 10.0 mi South 5.8 mph - N/A   Mostly Cloudy
4:51 AM - - - N/A% 29.85 in 10.0 mi SSE 5.8 mph - N/A   Mostly Cloudy
5:31 AM - - - N/A% 29.85 in 10.0 mi South 6.9 mph - N/A   Scattered Clouds
5:51 AM - - - N/A% 29.85 in 10.0 mi SSE 5.8 mph - N/A   Clear
6:51 AM - - - N/A% 29.86 in 10.0 mi SSE 6.9 mph - N/A   Clear
7:51 AM 78.1 °F - 75.9 °F 93% 29.87 in 10.0 mi South 9.2 mph - N/A   Clear
8:51 AM 81.0 °F 87.3 °F 75.9 °F 85% 29.89 in 10.0 mi SSE 13.8 mph - N/A   Partly Cloudy
8:53 AM 82.4 °F 89.5 °F 75.2 °F 79% 29.89 in 10.0 mi South 17.3 mph 20.7 mph N/A   Scattered Clouds
9:47 AM 82.4 °F 89.5 °F 75.2 °F 79% 29.90 in 10.0 mi South 13.8 mph - N/A   Scattered Clouds
9:51 AM 82.9 °F 90.2 °F 75.0 °F 77% 29.89 in 10.0 mi South 15.0 mph - N/A   Scattered Clouds
10:51 AM 86.0 °F 95.1 °F 75.0 °F 70% 29.89 in 10.0 mi South 17.3 mph 23.0 mph N/A   Scattered Clouds
11:51 AM 87.1 °F 96.3 °F 75.0 °F 67% 29.88 in 10.0 mi South 16.1 mph - N/A   Scattered Clouds
12:51 PM 89.1 °F 99.1 °F 75.0 °F 63% 29.87 in 10.0 mi SSE 13.8 mph 23.0 mph N/A   Scattered Clouds
1:51 PM 90.0 °F 100.2 °F 75.0 °F 61% 29.85 in 10.0 mi SSE 17.3 mph 25.3 mph N/A   Partly Cloudy
2:51 PM 90.0 °F 99.0 °F 73.9 °F 59% 29.84 in 10.0 mi SSE 12.7 mph 23.0 mph N/A   Scattered Clouds
3:51 PM 90.0 °F 100.2 °F 75.0 °F 61% 29.83 in 10.0 mi SSE 19.6 mph 28.8 mph N/A   Partly Cloudy
4:51 PM 89.1 °F 98.0 °F 73.9 °F 61% 29.81 in 10.0 mi SSE 18.4 mph 24.2 mph N/A   Partly Cloudy
5:51 PM 88.0 °F 95.6 °F 73.0 °F 61% 29.80 in 10.0 mi SSE 17.3 mph 27.6 mph N/A   Clear
6:51 PM 86.0 °F 93.8 °F 73.9 °F 67% 29.81 in 10.0 mi SSE 21.9 mph 25.3 mph N/A   Partly Cloudy
7:51 PM 82.9 °F 89.4 °F 73.9 °F 74% 29.81 in 10.0 mi SSE 18.4 mph - N/A   Partly Cloudy
8:51 PM 81.0 °F 86.7 °F 75.0 °F 82% 29.82 in 10.0 mi SSE 13.8 mph - N/A   Scattered Clouds
9:51 PM 79.0 °F - 75.0 °F 88% 29.83 in 10.0 mi SSE 12.7 mph - N/A   Clear
10:51 PM 78.1 °F - 75.0 °F 90% 29.83 in 10.0 mi SSE 11.5 mph - N/A   Clear
11:12 PM 78.8 °F - 75.2 °F 89% 29.83 in 10.0 mi SSE 13.8 mph - N/A   Mostly Cloudy
11:19 PM 78.8 °F - 75.2 °F 89% 29.84 in 10.0 mi SSE 10.4 mph - N/A   Scattered Clouds
11:41 PM 78.8 °F - 75.2 °F 89% 29.83 in 10.0 mi SSE 12.7 mph - N/A   Mostly Cloudy
11:51 PM 78.1 °F - 75.9 °F 93% 29.83 in 10.0 mi SSE 12.7 mph - N/A   Mostly Cloudy